Погода в Репках

Украина / Черниговская область     51°48′08″N   31°05′00″E
темп.,
°C
ветер,
м/с
пор.,
м/с
влажн.,
%
обл.,
%
осадки,
мм/ч
давл.,
гПа
погр.,
м
4 марта, чт
чт423:00−1зюз498717 0.0 1021200
02:00−1зюз49899 0.0 1019220
05:00−3юз59940 0.0 1015209
08:00−1юз612942 0.0 1012301
11:00+2зюз511982 0.0 1009384
14:00+5зюз5119526 0.0 1007690
17:00+4з4119187 0.1 1006349
20:00+2сз5119594 0.6 1007570
5 марта, пт
пт523:000сз489783 0.0 1008367
02:00−1сз369888 0.1 1009275
05:00−2сз359688 0.0 1011152
08:00−2с348693 0.0 1012240
11:000с347393 0.0 1013609
14:00+1ссз346497 0.0 10141091
17:00−1ссз3567100 0.0 1015136
20:00−2сз1269100 0.0 101729
6 марта, сб
сб623:00−2ссз4974100 0.0 1019546
02:00−4ссз497183 0.0 1020489
05:00−4сз37650 0.0 1021345
08:00−3зсз47581 0.0 1022515
11:00−1зсз585594 0.0 10231262
14:000сз576196 0.6 10221152
17:00−1ссз356590 0.3 1023505
20:00−3зсз247045 0.3 1024117
7 марта, вс
вс723:00−3з487127 0.0 1024403
02:00−4зюз6116413 0.0 1022496
05:00−3зюз8156057 0.0 1019654
08:00−2зюз9166479 0.0 10151035
11:00+1з111764100 0.0 10121303
14:00+2з101566100 0.0 10111412
17:00+2з81575100 0.0 10091208
20:000з8158397 0.0 1008933
8 марта, пн
пн823:000з10167890 0.0 10071178
02:00−1зсз7137995 0.4 10081180
05:00−3зсз6126980 0.0 10091006
08:00−3зсз696850 0.0 1011961
11:00−2зсз576199 0.0 10121076
14:00−1зсз4658100 0.1 10131288
17:00−1зсз4566100 0.1 1012969
20:00−3ссз237886 0.1 1014127